This demonstration page uses our WeatherBlox Daily Observations layout. Learn more.

Left ArrowRight Arrow

Hourly Observations for August 22, 2019

Temp ( °F °C ) Dew Point ( °F °C ) Humidity (%) Winds ( mph kmh ) Pressure ( in mb ) Visibility ( mi km ) Precip ( " mm )
12:53 am 00:53 Clear 83 28.3 53 11.7 36 36 SE 9 15 29.82 1010 10 16 0.00 0.00
1:53 am 01:53 Clear 82 27.8 55 12.8 40 40 SE 10 17 29.81 1010 10 16 0.00 0.00
2:53 am 02:53 Clear 79 26.1 55 12.8 44 44 E 7 11 29.82 1010 10 16 0.00 0.00
3:53 am 03:53 Clear 79 26.1 57 13.9 47 47 ESE 9 15 29.81 1009 10 16 0.00 0.00
4:53 am 04:53 Clear 78 25.6 58 14.4 50 50 SE 10 17 29.80 1009 10 16 0.00 0.00
5:53 am 05:53 Clear 76 24.4 58 14.4 54 54 ESE 8 13 29.81 1009 10 16 0.00 0.00
6:53 am 06:53 Clear 76 24.4 59 15 56 56 ESE 10 17 29.82 1010 10 16 0.00 0.00
7:53 am 07:53 Sunny 76 24.4 61 16.1 60 60 ESE 10 17 29.83 1010 10 16 0.00 0.00
8:53 am 08:53 Sunny 79 26.1 62 16.7 56 56 ENE 8 13 29.84 1011 10 16 0.00 0.00
9:53 am 09:53 Sunny 82 27.8 64 17.8 55 55 ESE 10 17 29.84 1011 10 16 0.00 0.00
10:53 am 10:53 Sunny 85 29.4 63 17.2 48 48 undefined N/A 29.83 1010 N/A 0.00 0.00
11:53 am 11:53 Sunny 87 30.6 63 17.2 45 45 VRB 7 11 29.82 1010 10 16 0.00 0.00
12:53 pm 12:53 Sunny 92 33.3 61 16.1 36 36 SE 9 15 29.80 1009 10 16 0.00 0.00
1:53 pm 13:53 Sunny 92 33.3 59 15 33 33 SE 9 15 29.78 1008 10 16 0.00 0.00
2:53 pm 14:53 Sunny 95 35 57 13.9 28 28 VRB 6 9 29.75 1008 10 16 0.00 0.00
3:53 pm 15:53 Sunny 97 36.1 55 12.8 24 24 ESE 5 7 29.72 1007 10 16 0.00 0.00
4:53 pm 16:53 Mostly Sunny 99 37.2 54 12.2 22 22 undefined N/A 29.69 1005 10 16 0.00 0.00
5:53 pm 17:53 Partly Cloudy 98 36.7 52 11.1 21 21 ESE 9 15 29.67 1005 10 16 0.00 0.00
6:53 pm 18:53 Cloudy with Thunderstorms 91 32.8 58 14.4 33 33 ESE 18 30 29.69 1006 10 16 0.00 0.00
7:53 pm 19:53 Partly Cloudy with Thunderstorms 75 24 N/A N/A undefined N/A 29.76 1008 N/A 0.00 0.00
8:30 pm 20:30 Mostly Clear with Strong Thunderstorms 71 21.7 61 16.1 71 71 SSE 23 37 29.83 1010 1 1 0.02 0.51
8:41 pm 20:41 Mostly Clear with Thunderstorms 70 21.1 63 17.2 79 79 undefined N/A 29.85 1011 N/A 0.02 0.51
8:53 pm 20:53 Mostly Clear with Strong Thunderstorms 70 21.1 64 17.8 82 82 S 12 19 29.85 1011 2 3 0.15 3.81
9:07 pm 21:07 Mostly Clear with Strong Thunderstorms 71 21.7 65 18.3 81 81 SSW 15 24 29.83 1010 3 5 0.08 2.03
9:53 pm 21:53 Partly Cloudy with Nearby Thunderstorms 70 21.1 63 17.2 79 79 S 23 37 29.79 1009 10 16 0.15 3.81
10:18 pm 22:18 Mostly Cloudy 71 21.7 61 16.1 71 71 S 14 22 29.79 1009 10 16 0.00 0.00
10:53 pm 22:53 Clear 71 21.7 63 17.2 76 76 S 10 17 29.79 1009 10 16 0.00 0.00
11:53 pm 23:53 Clear 73 22.8 64 17.8 74 74 S 12 19 29.78 1008 10 16 0.00 0.00

Powered by AerisWeather